Torna al catalogo

FENGYUN 1C DEB

AttivoSSO
NORAD 31333·DEBRIS·🇨🇳 China

Lanciato May 10, 1999 da Taiyuan Satellite Launch Center

Loading…

Prossimi Passaggi (prossime 24 ore)

TLE

AggiornatoSource: Space-Track

Epoca: Sep 13, 2026, 18:44 UTC

1 31333U 99025BQM 26256.78056318  .00000918  00000-0  37345-3 0  9990
2 31333  98.4219 266.2761 0096005 298.1380  61.0126 14.27360914  4938

Traccia FENGYUN 1C DEB in tempo reale con AllMySat

Download on the App Store